Location: Archemont
(49.1579°N, 1.7598°E)
Time: 20:39:21
(UTC+00:00)

Explorer 11/Cluster Stage 4 - Visible Passes

Search period start: 12 April 2024 00:00
Search period end: 22 April 2024 00:00
Orbit: 465 x 1220 km, 28.8° (Epoch: 11 April)

Date Brightness Start Highest point End Pass type
(mag) Time Alt. Az. Time Alt. Az. Time Alt. Az.
12 Apr 9.3 04:27:15 10° S 04:29:53 12° SSE 04:32:36 10° SE visible
13 Apr 9.2 04:09:57 10° S 04:12:27 12° SSE 04:15:02 10° SE visible
14 Apr 9.1 03:52:46 10° S 03:55:03 12° SSE 03:57:23 10° SSE visible
15 Apr 9.0 03:35:43 10° S 03:37:38 11° SSE 03:39:38 10° SSE visible
16 Apr 8.9 03:18:49 10° S 03:20:16 11° SSE 03:21:45 10° SSE visible
17 Apr 8.9 03:02:24 10° S 03:02:54 10° SSE 03:03:25 10° SSE visible
